星链-4325 (STARLINK-4325 )

导读 | 豆包AI

STARLINK-4325是美国星链项目中的一颗卫星,于2022年7月11日发射升空,归属SpaceX公司的Starlink星座网络。该卫星属于星链卫星发射批次中的一员,主要服务于全球卫星互联网接入项目,通过近地轨道卫星组网,为全球不同地区用户提供高速低延迟的宽带互联网服务。

基本信息
目录编号:
53068
目录名称:
STARLINK-4325
国际标识:
2022-077AB
轨道中心:
EARTH
卫星名称:
星链-4325
卫星全名:
星链-4325 (STARLINK-4325 )
卫星状态:
在轨 (已飞行1343 天)
发射日期:
2022-07-11 UTC
国别 :
美国 (US)
星等 :
--
轨道信息
数据来源 国际轨道数据
星历时间: 2026-03-14T19:40:16+0800
15小时前
查看轨道信息
半长轴: 6927.669km
偏心率: 0.000145
轨道倾角: 97.602°
近地点辐角 85.831°
升交点赤经 255.953°
平近点角 274.308°
近地点: 548.527km
远地点: 550.537km
周期: 95.640分钟
每日圈数: 15.056433
详细信息
固有亮度:
5
最大亮度:
2.5
卫星平台:
Starlink v1.5
覆盖范围:
全球
运营商:
太空探索技术公司
运营商所在国:
美国
制造商(研发单位):
太空探索技术公司
制造商所在国:
美国
使用方式:
暂无
卫星简介
星链(Starlink)计划是由太空探索技术公司(SpaceX)提出的一个巨型低轨卫星互联网星座项目,计划在2019年至2024年间在太空搭建由约1.2万颗卫星组成的“星链”网络,其中1584颗将部署在地球上空550千米处的近地轨道,并从2020年开始工作。该卫星仍在工作。
2D轨道图
3D轨道图
轨道高度分析图
轨道倾角分析图
轨道综合分析图
查看轨道综合分析图